DW1389 Weather Reports


Display with metric or nautical units.
time (UTC)temp
F
wind
direction
speed
MPH
gust
MPH
rain 1hr
in
rain 24hr
in
rain mn
in
humidity
%
barometer
mb
20260903124721 80 193 3.0 8.0 0.00 0.01 0.00 86 1012.7
20260903124221 80 225 3.0 7.0 0.00 0.01 0.00 86 1012.6
20260903123721 80 238 3.0 7.0 0.00 0.01 0.00 86 1012.6
20260903123215 80 159 3.0 7.0 0.00 0.01 0.00 86 1012.6
20260903122715 80 215 3.0 7.0 0.00 0.01 0.00 86 1012.6
20260903122208 80 295 4.0 9.0 0.00 0.01 0.00 86 1012.5
20260903121740 80 167 4.0 10.0 0.00 0.01 0.00 86 1012.4
20260903121730 80 199 4.0 9.0 0.00 0.01 0.00 86 1012.4
20260903120710 80 228 3.0 10.0 0.00 0.01 0.00 86 1012.4
20260903120210 80 170 3.0 8.0 0.00 0.01 0.00 86 1012.5
20260903115710 80 318 3.0 8.0 0.00 0.01 0.00 86 1012.5
20260903115210 80 260 3.0 5.0 0.00 0.01 0.00 87 1012.5
20260903114709 80 227 2.0 5.0 0.00 0.01 0.00 86 1012.4
20260903114208 80 323 2.0 6.0 0.00 0.01 0.00 87 1012.4
20260903113707 80 233 2.0 7.0 0.00 0.01 0.00 86 1012.4
20260903113206 80 221 2.0 7.0 0.00 0.01 0.00 86 1012.5
20260903112708 80 193 2.0 6.0 0.00 0.01 0.00 87 1012.5
20260903112205 80 209 3.0 6.0 0.00 0.01 0.00 86 1012.5
20260903111704 80 277 3.0 6.0 0.00 0.01 0.00 86 1012.4
20260903111204 80 141 3.0 6.0 0.00 0.01 0.00 86 1012.4
20260903110704 80 217 3.0 7.0 0.00 0.01 0.00 86 1012.4
20260903110205 80 235 3.0 7.0 0.00 0.01 0.00 86 1012.3
20260903105703 80 250 3.0 7.0 0.00 0.01 0.00 87 1012.3
20260903105201 80 218 3.0 6.0 0.00 0.01 0.00 87 1012.3
20260903104935 80 246 2.0 5.0 0.00 0.01 0.00 87 1012.2
20260903104201 80 185 2.0 6.0 0.00 0.01 0.00 87 1012.2
20260903103700 80 129 3.0 6.0 0.00 0.01 0.00 87 1012.1
20260903103200 80 264 3.0 6.0 0.00 0.01 0.00 87 1012.1
20260903102702 80 242 3.0 6.0 0.00 0.01 0.00 87 1012.1
20260903102201 80 283 2.0 6.0 0.00 0.01 0.00 87 1012.1
20260903101701 80 42 2.0 7.0 0.00 0.01 0.00 87 1012.1
20260903101200 80 213 3.0 7.0 0.00 0.01 0.00 87 1012.0
20260903100703 80 174 3.0 7.0 0.00 0.01 0.00 87 1012.0
20260903100201 80 270 3.0 7.0 0.00 0.01 0.00 87 1012.0
20260903095943 80 149 3.0 7.0 0.00 0.01 0.00 86 1011.9
20260903095201 80 147 3.0 7.0 0.00 0.01 0.00 86 1012.0
20260903094943 80 269 4.0 8.0 0.00 0.01 0.00 86 1012.1
20260903094201 80 232 4.0 9.0 0.00 0.01 0.00 86 1012.1
20260903093700 80 284 4.0 9.0 0.00 0.01 0.00 86 1012.1
20260903093200 80 259 4.0 9.0 0.00 0.01 0.00 86 1012.2
20260903092702 80 246 3.0 6.0 0.00 0.01 0.00 86 1012.3
20260903092201 80 271 3.0 7.0 0.00 0.01 0.00 86 1012.3
20260903091701 80 197 3.0 7.0 0.00 0.01 0.00 86 1012.3
20260903091432 80 297 2.0 5.0 0.00 0.01 0.00 85 1012.3
20260903090927 80 204 3.0 8.0 0.00 0.01 0.00 85 1012.3
20260903090201 80 222 3.0 8.0 0.00 0.01 0.00 85 1012.4
20260903085701 80 233 3.0 7.0 0.00 0.01 0.00 85 1012.3
20260903085201 80 46 3.0 7.0 0.00 0.01 0.00 85 1012.3
20260903084701 80 235 3.0 8.0 0.00 0.01 0.00 85 1012.4
20260903084201 80 315 4.0 8.0 0.00 0.01 0.00 85 1012.3
20260903083944 80 152 4.0 8.0 0.00 0.01 0.00 85 1012.4
20260903083201 80 203 3.0 6.0 0.00 0.01 0.00 84 1012.4
20260903082705 81 218 3.0 6.0 0.00 0.01 0.00 84 1012.4
20260903082201 81 185 3.0 7.0 0.00 0.01 0.00 84 1012.4
20260903081700 81 233 3.0 7.0 0.00 0.01 0.00 84 1012.4
20260903081445 81 180 3.0 7.0 0.00 0.01 0.00 83 1012.4
20260903080943 81 269 4.0 9.0 0.00 0.01 0.00 83 1012.4
20260903080201 81 202 4.0 9.0 0.00 0.01 0.00 83 1012.4
20260903075701 81 202 3.0 7.0 0.00 0.01 0.00 83 1012.4
20260903075446 81 189 3.0 7.0 0.00 0.01 0.00 83 1012.4
20260903074730 81 208 2.0 4.0 0.00 0.01 0.00 82 1012.4
20260903074719 81 280 3.0 6.0 0.00 0.01 0.00 82 1012.4
20260903073700 81 196 2.0 6.0 0.00 0.01 0.00 82 1012.4
20260903073429 81 244 2.0 6.0 0.00 0.01 0.00 81 1012.4
20260903072949 80 307 2.0 6.0 0.00 0.01 0.00 81 1012.5
20260903072201 80 150 2.0 5.0 0.00 0.01 0.00 81 1012.5
20260903071939 80 230 2.0 3.0 0.00 0.01 0.00 80 1012.5
20260903071658 80 268 2.0 4.0 0.00 0.01 0.00 80 1012.6
20260903070700 81 213 2.0 6.0 0.00 0.01 0.00 80 1012.6
20260903070201 81 221 2.0 6.0 0.00 0.01 0.00 80 1012.7
20260903065701 80 209 2.0 5.0 0.00 0.01 0.00 80 1012.7
20260903065201 80 73 2.0 4.0 0.00 0.01 0.00 80 1012.6
20260903064701 80 55 2.0 4.0 0.00 0.01 0.00 80 1012.7
20260903064201 81 167 2.0 4.0 0.00 0.01 0.00 80 1012.8
20260903063924 81 121 1.0 4.0 0.00 0.01 0.00 80 1012.8
20260903063200 81 303 2.0 4.0 0.00 0.01 0.00 80 1012.9
20260903062701 81 289 2.0 4.0 0.00 0.01 0.00 80 1012.9
20260903062201 81 256 2.0 3.0 0.00 0.01 0.00 80 1012.9
20260903061701 81 76 2.0 4.0 0.00 0.01 0.00 79 1012.8
20260903061201 81 208 2.0 4.0 0.00 0.01 0.00 79 1012.8
20260903060700 81 260 2.0 4.0 0.00 0.01 0.00 79 1012.8
20260903060205 81 95 1.0 4.0 0.00 0.01 0.00 80 1012.8
20260903055702 80 254 2.0 4.0 0.00 0.01 0.00 80 1012.9
20260903055201 80 276 2.0 4.0 0.00 0.01 0.00 80 1012.9
20260903054702 80 105 2.0 4.0 0.00 0.01 0.00 80 1012.9
20260903054200 80 128 2.0 5.0 0.00 0.01 0.00 81 1012.8
20260903053702 80 258 2.0 5.0 0.00 0.01 0.00 81 1012.7
20260903053202 80 176 2.0 4.0 0.00 0.01 0.00 81 1012.7
20260903052701 80 237 2.0 4.0 0.00 0.01 0.00 81 1012.7
20260903052201 80 122 2.0 4.0 0.00 0.01 0.00 81 1012.8
20260903051924 80 299 2.0 5.0 0.00 0.01 0.00 81 1012.8
20260903051201 80 338 2.0 5.0 0.00 0.01 0.00 82 1012.8
20260903050702 80 245 2.0 5.0 0.00 0.01 0.00 82 1012.8
20260903050201 80 97 2.0 4.0 0.00 0.01 0.00 82 1012.8
20260903045702 80 141 2.0 4.0 0.00 0.01 0.01 81 1012.7
20260903045424 80 103 2.0 5.0 0.00 0.01 0.01 81 1012.8
20260903044933 80 268 2.0 5.0 0.00 0.01 0.01 81 1012.7
20260903044201 80 136 2.0 5.0 0.00 0.01 0.01 81 1012.7
20260903043701 80 111 2.0 5.0 0.00 0.01 0.01 80 1012.6
20260903043202 80 140 2.0 6.0 0.00 0.01 0.01 80 1012.6
20260903042703 80 298 2.0 6.0 0.00 0.01 0.01 79 1012.7
20260903042203 81 127 3.0 7.0 0.00 0.01 0.01 79 1012.7
20260903041702 81 120 4.0 8.0 0.00 0.01 0.01 78 1012.7
20260903041202 81 135 3.0 8.0 0.00 0.01 0.01 77 1012.7
20260903040949 82 6 2.0 6.0 0.00 0.01 0.01 76 1012.7
20260903040201 82 320 2.0 5.0 0.00 0.01 0.01 74 1012.7
20260903035701 82 102 2.0 5.0 0.00 0.01 0.01 72 1012.7
20260903035202 83 344 3.0 6.0 0.00 0.01 0.01 70 1012.8
20260903034702 83 196 3.0 6.0 0.00 0.01 0.01 70 1012.8
20260903034201 83 133 2.0 6.0 0.00 0.01 0.01 70 1012.7
20260903033701 83 317 3.0 7.0 0.00 0.01 0.01 69 1012.8
20260903033201 84 22 4.0 7.0 0.00 0.01 0.01 67 1012.8
20260903032702 84 307 4.0 8.0 0.00 0.01 0.01 67 1012.8
20260903032204 84 73 4.0 8.0 0.00 0.01 0.01 66 1012.8
20260903031704 84 80 4.0 8.0 0.00 0.01 0.01 66 1012.7
20260903031200 85 47 4.0 0.0 0.00 0.01 0.01 64 1012.1
20260903031030 0 69 4.0 4.0 0.00 0.01 0.01
20260903030530 85 69 4.0 7.0 0.00 0.01 0.01 64 1012.2
20260903030028 85 42 4.0 7.0 0.00 0.01 0.01 64 1012.2
20260903025532 0 0.0 0.0 0.00 0.00 0.00
20260903025230 0 114 2.0 2.0 0.00 0.01 0.01
20260903024951 86 114 2.0 5.0 0.00 0.01 0.01 60 1011.8
20260903024214 86 49 2.0 5.0 0.00 0.01 0.01 60 1011.8
20260903023715 86 92 2.0 4.0 0.00 0.01 0.01 60 1011.6
20260903023214 87 95 2.0 5.0 0.00 0.01 0.01 58 1011.5
20260903022714 87 48 2.0 5.0 0.00 0.01 0.01 58 1011.4
20260903022214 87 354 2.0 7.0 0.00 0.01 0.01 57 1011.3
20260903021704 87 314 2.0 7.0 0.00 0.01 0.01 57 1011.2
20260903021202 88 77 1.0 2.0 0.00 0.01 0.01 56 1010.9
20260903020702 88 77 1.0 2.0 0.00 0.01 0.01 56 1010.9
20260903020201 88 0 0.0 2.0 0.00 0.01 0.01 56 1010.9
20260903015702 88 133 1.0 2.0 0.00 0.01 0.01 54 1010.5
20260903015202 88 133 1.0 3.0 0.00 0.01 0.01 54 1010.5
20260903014630 88 352 1.0 3.0 0.00 0.01 0.01 54 1010.5
20260903014130 89 72 1.0 2.0 0.00 0.01 0.01 55 1010.5
20260903013630 89 0 1.0 2.0 0.00 0.01 0.01 54 1010.4
20260903013116 89 62 1.0 2.0 0.00 0.01 0.01 54 1010.5
20260903012842 89 71 1.0 3.0 0.00 0.01 0.01 54 1010.5
20260903012116 90 138 1.0 3.0 0.00 0.01 0.01 53 1010.7
20260903011616 90 119 1.0 3.0 0.00 0.01 0.01 53 1010.5
20260903011116 90 137 1.0 4.0 0.00 0.01 0.01 53 1010.5
20260903010617 90 118 2.0 4.0 0.00 0.01 0.01 53 1010.5
20260903010116 90 114 1.0 4.0 0.00 0.01 0.01 52 1010.4
20260903005615 90 64 1.0 5.0 0.00 0.01 0.01 52 1010.4
20260903005341 90 267 1.0 5.0 0.00 0.01 0.01 52 1010.4
20260903004606 91 137 1.0 5.0 0.00 0.01 0.01 52 1010.5
20260903004104 90 140 1.0 3.0 0.00 0.01 0.01 52 1010.5
20260903003604 90 132 1.0 3.0 0.00 0.01 0.01 52 1010.7
20260903003351 90 198 1.0 3.0 0.00 0.01 0.01 52 1010.7
20260903002602 91 286 1.0 3.0 0.00 0.01 0.01 52 1010.7
20260903002148 91 282 1.0 5.0 0.00 0.01 0.01 52 1010.7
20260903002131 91 285 1.0 5.0 0.00 0.01 0.01 53 1010.7
20260903001101 92 203 1.0 5.0 0.00 0.01 0.01 51 1010.7
20260903000602 92 160 2.0 6.0 0.00 0.01 0.01 51 1010.7
20260902235602 95 193 2.0 5.0 0.00 0.01 0.01 48 1010.5
20260902235103 96 210 1.0 3.0 0.00 0.01 0.01 46 1010.4
20260902234602 96 256 1.0 3.0 0.00 0.01 0.01 44 1010.4
20260902234105 0 0.0 0.0 0.00 0.00 0.00
20260902233529 0 0.0 0.0 0.00 0.00 0.00
20260902233033 0 0.0 0.0 0.00 0.00 0.00
20260902232802 0 0.0 0.0 0.01 0.01 0.01
20260902232302 92 55 0.0 2.0 0.01 0.01 0.01 53 1010.3
20260902231802 92 55 0.0 2.0 0.01 0.01 0.01 53 1010.3
20260902231302 91 87 0.0 3.0 0.01 0.01 0.01 55 1010.4
20260902231027 91 87 0.0 3.0 0.01 0.01 0.01 55 1010.4
20260902230303 91 113 0.0 3.0 0.01 0.01 0.01 54 1010.5
20260902225802 91 0 2.0 5.0 0.01 0.00 0.01 56 1010.5
20260902225305 91 176 3.0 7.0 0.01 0.00 0.01 56 1010.4
20260902224800 92 243 4.0 11.0 0.01 0.00 0.01 55 1010.4
20260902224302 94 256 6.0 11.0 0.00 0.00 0.00 49 1010.4
20260902224042 96 222 4.0 10.0 0.00 0.00 0.00 45 1010.4
20260902223301 98 244 2.0 6.0 0.00 0.00 0.00 43 1010.2
20260902222800 98 336 2.0 5.0 0.00 0.00 0.00 39 1010.1
20260902222305 99 225 1.0 4.0 0.00 0.00 0.00 38 1010.1
20260902221801 99 217 1.0 3.0 0.00 0.00 0.00 38 1010.1
20260902221301 99 222 1.0 3.0 0.00 0.00 0.00 38 1010.0
20260902220801 99 227 1.0 3.0 0.00 0.00 0.00 38 1010.1
20260902220301 99 200 1.0 3.0 0.00 0.00 0.00 38 1010.1
20260902215801 100 238 0.0 2.0 0.00 0.00 0.00 37 1010.1
20260902215306 100 0 0.0 2.0 0.00 0.00 0.00 37 1010.1
20260902214801 100 0 1.0 2.0 0.00 0.00 0.00 37 1010.2
20260902214302 100 213 2.0 4.0 0.00 0.00 0.00 38 1010.3
20260902213800 100 219 2.0 4.0 0.00 0.00 0.00 37 1010.3
20260902213544 101 228 2.0 4.0 0.00 0.00 0.00 37 1010.3
20260902213048 102 251 1.0 4.0 0.00 0.00 0.00 36 1010.3
20260902212305 102 0 2.0 4.0 0.00 0.00 0.00 35 1010.3
20260902211801 101 0 1.0 4.0 0.00 0.00 0.00 37 1010.3
20260902211547 100 216 1.0 4.0 0.00 0.00 0.00 37 1010.3
20260902210802 100 213 1.0 4.0 0.00 0.00 0.00 37 1010.4
20260902210302 100 0 1.0 4.0 0.00 0.00 0.00 38 1010.5
20260902205804 100 196 1.0 4.0 0.00 0.00 0.00 38 1010.5
20260902205300 99 189 1.0 3.0 0.00 0.00 0.00 38 1010.7
20260902204802 100 217 2.0 5.0 0.00 0.00 0.00 38 1010.9
20260902204303 100 217 2.0 5.0 0.00 0.00 0.00 38 1010.9
20260902203805 0 0.0 0.0 0.00 0.00 0.00
20260902203233 0 0.0 0.0 0.00 0.00 0.00
20260902202916 0 0.0 0.0 0.00 0.00 0.00
20260902202907 0 0.0 0.0 0.00 0.00 0.00
20260902201704 0 0.0 0.0 0.00 0.00 0.00
20260902201130 103 253 1.0 3.0 0.00 0.00 0.00 36 1011.4
20260902200630 103 253 1.0 5.0 0.00 0.00 0.00 36 1011.4
20260902200130 102 330 2.0 7.0 0.00 0.00 0.00 36 1011.5
20260902195905 102 264 1.0 7.0 0.00 0.00 0.00 37 1011.5
20260902195130 102 143 2.0 7.0 0.00 0.00 0.00 36 1011.6
20260902194630 102 193 2.0 7.0 0.00 0.00 0.00 37 1011.7
20260902194128 102 240 1.0 6.0 0.00 0.00 0.00 37 1011.7
20260902193630 102 226 2.0 4.0 0.00 0.00 0.00 38 1011.8
20260902193128 102 100 2.0 7.0 0.00 0.00 0.00 37 1011.9
20260902192629 102 255 1.0 7.0 0.00 0.00 0.00 38 1012.0
20260902192130 101 212 1.0 5.0 0.00 0.00 0.00 40 1012.1
20260902191630 100 251 2.0 7.0 0.00 0.00 0.00 40 1012.3
20260902191131 100 112 2.0 7.0 0.00 0.00 0.00 39 1012.3
20260902190630 100 230 2.0 6.0 0.00 0.00 0.00 38 1012.3
20260902190129 100 45 2.0 6.0 0.00 0.00 0.00 39 1012.4
20260902185628 99 218 2.0 6.0 0.00 0.00 0.00 39 1012.5
20260902185130 98 240 2.0 6.0 0.00 0.00 0.00 41 1012.6
20260902184630 97 249 4.0 6.0 0.00 0.00 0.00 43 1012.7
20260902184130 100 243 2.0 5.0 0.00 0.00 0.00 40 1012.8
20260902183630 100 243 2.0 5.0 0.00 0.00 0.00 40 1012.8
20260902183129 99 192 1.0 4.0 0.00 0.00 0.00 40 1012.9
20260902182628 98 319 2.0 6.0 0.00 0.00 0.00 41 1013.0
20260902182130 98 233 2.0 6.0 0.00 0.00 0.00 42 1013.1
20260902181629 97 42 2.0 5.0 0.00 0.00 0.00 41 1013.1
20260902181415 97 202 2.0 6.0 0.00 0.00 0.00 42 1013.3
20260902180628 98 212 3.0 6.0 0.00 0.00 0.00 41 1013.5
20260902180133 98 254 3.0 8.0 0.00 0.00 0.00 43 1013.5
20260902175630 97 0 3.0 8.0 0.00 0.00 0.00 44 1013.6
20260902175129 98 244 2.0 8.0 0.00 0.00 0.00 43 1013.7
20260902174629 97 207 1.0 5.0 0.00 0.00 0.00 43 1013.8
20260902174417 97 127 2.0 8.0 0.00 0.00 0.00 43 1013.8
20260902173629 97 212 3.0 8.0 0.00 0.00 0.00 43 1013.9
20260902173129 97 37 2.0 6.0 0.00 0.00 0.00 44 1014.0
20260902172910 97 230 2.0 5.0 0.00 0.00 0.00 43 1014.0
20260902172129 97 221 2.0 4.0 0.00 0.00 0.00 44 1014.1
20260902171629 98 215 1.0 4.0 0.00 0.00 0.00 43 1014.2
20260902171129 97 109 1.0 4.0 0.00 0.00 0.00 42 1014.2
20260902170629 96 180 2.0 5.0 0.00 0.00 0.00 44 1014.3
20260902170130 96 256 2.0 7.0 0.00 0.00 0.00 45 1014.4
20260902165851 96 241 2.0 7.0 0.00 0.00 0.00 45 1014.4
20260902165428 95 237 2.0 7.0 0.00 0.00 0.00 46 1014.6
20260902165423 95 297 2.0 7.0 0.00 0.00 0.00 46 1014.5
20260902164408 95 164 2.0 5.0 0.00 0.00 0.00 45 1014.6
20260902163628 95 231 2.0 5.0 0.00 0.00 0.00 46 1014.7
20260902163129 94 271 1.0 4.0 0.00 0.00 0.00 48 1014.7
20260902162629 94 26 2.0 8.0 0.00 0.00 0.00 48 1014.8
20260902162409 94 55 2.0 8.0 0.00 0.00 0.00 48 1014.7
20260902161910 93 352 2.0 6.0 0.00 0.00 0.00 49 1014.7
20260902161129 93 227 2.0 5.0 0.00 0.00 0.00 49 1014.7
20260902160630 93 0 2.0 5.0 0.00 0.00 0.00 49 1014.7
20260902160409 92 234 2.0 5.0 0.00 0.00 0.00 51 1014.7
20260902155912 92 217 2.0 6.0 0.00 0.00 0.00 50 1014.7
20260902155157 91 235 2.0 6.0 0.00 0.00 0.00 53 1014.7
20260902155149 91 229 2.0 6.0 0.00 0.00 0.00 54 1014.7
20260902154130 91 202 2.0 5.0 0.00 0.00 0.00 54 1014.8
20260902153628 90 220 2.0 6.0 0.00 0.00 0.00 53 1014.8
20260902153129 90 202 2.0 6.0 0.00 0.00 0.00 55 1014.8
20260902152628 89 222 2.0 6.0 0.00 0.00 0.00 56 1014.9
20260902152413 89 192 2.0 6.0 0.00 0.00 0.00 56 1014.9
20260902151629 90 214 2.0 6.0 0.00 0.00 0.00 57 1014.9
20260902151130 90 232 2.0 6.0 0.00 0.00 0.00 55 1014.9
20260902150630 89 218 2.0 5.0 0.00 0.00 0.00 58 1014.9
20260902150129 89 69 2.0 6.0 0.00 0.00 0.00 57 1014.9
20260902145629 88 200 3.0 6.0 0.00 0.00 0.00 59 1014.8
20260902145131 87 238 3.0 6.0 0.00 0.00 0.00 60 1014.8
20260902144631 87 236 3.0 6.0 0.00 0.00 0.00 60 1014.9
20260902144129 87 213 3.0 6.0 0.00 0.00 0.00 61 1014.9
20260902143630 87 227 2.0 6.0 0.00 0.00 0.00 59 1015.0
20260902143129 87 194 2.0 4.0 0.00 0.00 0.00 61 1015.0
20260902142629 87 242 2.0 4.0 0.00 0.00 0.00 60 1015.0
20260902142130 86 229 2.0 6.0 0.00 0.00 0.00 61 1015.0
20260902141630 85 233 3.0 6.0 0.00 0.00 0.00 62 1014.9
20260902141128 85 252 2.0 6.0 0.00 0.00 0.00 62 1015.0
20260902140629 85 222 2.0 5.0 0.00 0.00 0.00 63 1014.9
20260902140129 84 225 2.0 5.0 0.00 0.00 0.00 64 1014.9
20260902135629 84 227 3.0 6.0 0.00 0.00 0.00 65 1014.8
20260902135129 84 227 3.0 6.0 0.00 0.00 0.00 66 1014.7
20260902134630 83 239 2.0 5.0 0.00 0.00 0.00 66 1014.6
20260902134415 83 234 2.0 5.0 0.00 0.00 0.00 67 1014.7
20260902133629 82 228 2.0 4.0 0.00 0.00 0.00 69 1014.7
20260902133130 82 231 3.0 4.0 0.00 0.00 0.00 69 1014.6
20260902132630 82 235 2.0 4.0 0.00 0.00 0.00 69 1014.6
20260902132131 81 233 2.0 4.0 0.00 0.00 0.00 71 1014.6
20260902131630 81 235 2.0 3.0 0.00 0.00 0.00 72 1014.6
20260902131403 80 233 1.0 3.0 0.00 0.00 0.00 73 1014.6
20260902130632 80 244 1.0 2.0 0.00 0.00 0.00 75 1014.5
20260902130130 79 288 0.0 1.0 0.00 0.00 0.00 76 1014.5
20260902125630 78 251 1.0 1.0 0.00 0.00 0.00 77 1014.4
20260902125131 78 286 1.0 2.0 0.00 0.00 0.00 77 1014.4